Погода в Бикине

Погода в Бикине : погода сейчас, прогноз погоды и архив. Всё, что Вы хотите узнать о погоде в Бикине!

Хотите узнать прогноз погоды в Бикине? Тогда Вам сюда: Погода в Бикине

Поиск расширенной информации на нашем сайте:

Другие новости

Новости СМИ2

Главная страница сайта

Новости сайта

03.07.2017

Напоминаем, что на нашем специализированном сайте Метеоцентр.Азия вы можете получить высокодетализированные автоматические прогнозы погоды по пунктам России, СНГ и мира в авиационном формате (включающие направление и скорость ветра, видимость, явления погоды, количество и форму облачности, нижнюю и верхнюю границу облачности).

Рекомендуем: http://tekstail.com.ua/ кухонные шторы купить. Фото штор.

Погода в Бикине - сегодня

Время (UTC), дата Ветер
(°,м/с) 
Видим.   Явления Облачность Т
(°С)
Тd
(°С)
f(%) Тe
(°С)
Pmin
(гПа)
dP
(гПа)
Po
(мм)
O2
(г/м3)
Тmin Tmax R s Состояние
почвы
06 21.11.17 140 (ЮВ) 20000 м    4/0 верхняя 
[Ci fib]
-7.8 -17.3 46 -11  1020  -2.2  758  316           
09 21.11.17 130 (ЮВ) 20000 м    9/0 верхняя 
[Ci sp]
-9.1 -18.3 47 -13  1018  -2  757  317    -7.1       
12 21.11.17 140 (ЮВ) 20000 м    10/0 верхняя 
[Ci sp]
-8.1 -18.9 41 -12  1016.1  -1.9  755  315           
15 21.11.17 140 (ЮВ) 20000 м    10/10 600 м кучево-дожд. 
[Cb calv]
-5.9 -16.4 43 -9  1013.2  -2.8  753  312           
18 21.11.17 110 (В) 4{10}  4000 м  слаб. ливневой снег  10/10 600 м кучево-дожд. 
[Cb calv]
-5.7 -8.1 83 -9  1010  -3.2  751  310           
21 21.11.17 120 (ЮВ) 4{10}  10 км  позёмок{ливн. осадки}  10/10 600 м кучево-дожд. 
[Cb calv]
-4.4 -6.7 84 -8  1006.7  -3.2  749  307  -9.2    0.2  равномерный
сухой снег
100% 
00 22.11.17 110 (В) 2000 м  слаб. ливневой снег  10/10 600 м кучево-дожд. 
[Cb calv]
-3.3 -4.1 94 -4  1005.5  -1.2  748  305           
03 22.11.17 280 (З) 20000 м  в посл. час ливневой снег  9/9 600 м кучево-дожд. 
[Cb calv]
-2.3 -5.6 78 -3  1006.9  1.5  749  305           
06 22.11.17 300 (СЗ) 20000 м  {ливн. осадки}  10/10 600 м кучево-дожд. 
[Cb calv]
-4.3 -9 70 -6  1009  750  308           
09 22.11.17 280 (З) 20000 м    10/10 600 м 
[Sc]
-5.9 -8.9 79 -6  1010.6  1.5  752  310    -0.2     
12 22.11.17 310 (СЗ) 10 км    10/10 600 м 
[Sc]
-6.8 -9.6 80 -6  1011.3  0.6  752  312           
15 22.11.17 220 (ЮЗ) 20000 м    10/8 600 м верхняя 
[Sc|Ci fib]
-9.2 -12.1 79 -9  1011.7  0.3  752  315           
18 22.11.17 070 (В) 20000 м    4/4 600 м 
[Sc]
-11 -13.1 84 -11  1011.5  -0.3  752  317           
21 22.11.17 160 (Ю) 20000 м    10/10 600 м 
[Sc]
-9.9 -12.3 83 -10  1011.3  -0.2  752  315  -11      равномерный
сухой снег
100% 
00 23.11.17 тихо ()   10 км  слаб. снег  10/0 средняя 
[As trans]
-9.1 -11.8 81 -9  1011.4  0.2  752  315           
03 23.11.17 280 (З) 10 км  {снег}  10/0 средняя 
[As trans]
-8.2 -12.2 73 -10  1010.7  -0.6  751  313           
06 23.11.17 340 (С) 20000 м    4/4 600 м 
[Sc]
-7.4 -12.4 67 -9  1010.6  751  312           
09 23.11.17 360 (С) 10 км  слаб. снег  10/10 600 м 
[Sc]
-10.6 -13.3 81 -12  1012.8  753  317    -6.8  0.2     
12 23.11.17 360 (С) 10 км  {снег}  4/4 600 м 
[Sc]
-14.9 -16.9 85 -15  1013.5  0.5  753  323           
15 23.11.17 080 (В) 10 км    ясно 
-18.8 -20.7 85 -19  1013.4  -0.2  753  328           
18 23.11.17 тихо ()   10 км    ясно 
-21.1 -23.3 82 -21  1013.9  0.4  754  331           
21 23.11.17 тихо ()   10 км    ясно 
-23.5 -25.7 82 -24  1014.3  0.3  754  334  -23.5    0.2  равномерный
сухой снег
100% 
00 24.11.17 310 (СЗ) 20000 м    1/0 верхняя 
[Ci sp]
-18.7 -21.5 79 -19  1015.6  1.5  755  328  -23.6         
03 24.11.17 270 (З) 20000 м    3/0 верхняя 
[Ci sp]
-13.1 -21.2 51 -13  1015.7  0.2  755  321           
06 24.11.17 260 (З) 20000 м    1/1 600 м 
[Sc]
-12.7 -22.9 42 -13  1016.1  0.5  755  321           
Время (UTC), дата Ветер
(°,м/с) 
Видим.   Явления Облачность Т
(°С)
Тd
(°С)
f(%) Тe
(°С)
Pmin
(гПа)
dP
(гПа)
Po
(мм)
O2
(г/м3)
Тmin Tmax R s Состояние
почвы

Для получения пояснительной информации подведите курсор к названию столбца.

ПОГОДА в Бикине - архив

Всё, что Вы хотите узнать о погоде в Бикине - удобно и подробно!

Выберите нужную дату (начиная с 1 января 2015* года) и нажмите кнопку "Найти".
Будут отображены архивные сводки погоды по пункту Бикин, начиная с указанной даты.


Отображать данные в формате CSV (для использования в таблицах Excel)


Внимание! Наш архив погоды предназначен исключительно для личного некоммерческого использования в познавательных целях. Если Вам необходимы официальные справки о состоянии погоды (для производственных, юридических, коммерческих и т.п. целей), обращайтесь в органы Росгидромета.

*Примечание: данная дата относится к архиву по метеостанциям СССР (Россия, СНГ, Балтия).
Архив по метеостанциям Зарубежной Европы и Азии (кроме Китая) хранится 10 дней, по другим регионам земного шара (Китай, Африка, Америка, Австралия, Океания) - 1 день.

Бикин - район местоположения метеостанции


Название, широта, долгота, высота метеостанции:
Бикин 46.8°ш. 134.3°д. 68 м над ур. моря [Российская Федерация]

Дополнительная информация

В oтличие oт бoльшинства пoгoдных сайтoв мы публикуем пoдрoбную метеoинфoрмацию в детальнoм прoфессиoнальнoм фoрмате.

Характеристики температуры и влажнoсти вoздуха измеряются на высoте 2 м в тени вдали oт зданий и деревьев.
Скoрoсть ветра измеряется на высoте 10 м (на урoвне рoста челoвека скoрoсть ветра ниже в 1.5-2 раза). Если метеoстанция нахoдится в гoрoде или в лесу, тo скoрoсть ветра занижена на 2-4 м/с пo сравнению с oткрытым местoм. Скoрoсть ветра над акватoриями крупных рек и oзёр, а также на вершинах хoлмoв на 2-5 м/с выше, чем в oбычных услoвиях.
Атмoсфернoе давление в разных тoчках местнoсти мoжет значительнo oтличаться oт давления на метеoстанции, в зависимoсти oт услoвий рельефа (при пoдъёме на 10 м давление пoнижается примернo на 1 мм рт.ст.).